Home > Time Zones > World Clock > Weather > France > Lyon > Past weeks

Flag for France Weather past 2 weeks in Lyon, France

Now
97 °F

Passing clouds.


Feels Like: 95 °F
Forecast: 71 / 100 °F
Wind: 16 mph from South

Location: Lyon / Bron

Current Time: Jul 4, 2015 at 2:16:49 PM

Latest Report: Jul 4, 2015 at 2:00 PM


Visibility: N/A

Pressure: 30.12 "Hg

Humidity: 25%

Dew point: 55 °F

Location of LyonLocation

Historic Weather in Lyon — Graph

°F

Lyon temperature yesterday

Maximum temperature yesterday: 97 °F (at 4:30 PM)
Minimum temperature yesterday: 72 °F (at 5:30 AM)
Average temperature yesterday: 85 °F

Past Weeks' High & Low Weather Summary

 TemperatureHumidityPressure
High97 °F (Jul 3, 4:30 PM)88% (Jun 21, 5:30 AM)30.21 "Hg (Jun 21, 5:30 AM)
Low55 °F (Jun 21, 5:30 AM)19% (Jun 28, 6:00 PM)29.83 "Hg (Jun 22, 6:30 PM)
Average75 °F47%30.10 "Hg
* Reported Jun 19 1:00 PM — Jul 4 1:00 PM, Lyon, Weather by CustomWeather, © 2015

Note: Actual official high and low records may vary slightly from our data, if they occured in-between our weather recording intervals... More about our weather records

Advertising

Lyon weather history for previous 24 hours

 ConditionsComfort  
Time TempWeatherWind HumidityBarometerVisibility
1:00 PM
Sat, Jul 4
95 °FSunny.20 mph25%30.15 "Hg10 mi
12:30 PM93 °FSunny.18 mph26%30.15 "Hg10 mi
12:00 PM93 °FPassing clouds.20 mph26%30.15 "HgN/A
11:30 AM91 °FPassing clouds.15 mph30%30.15 "HgN/A
11:00 AM91 °FSunny.17 mph30%30.15 "Hg10 mi
10:30 AM90 °FSunny.14 mph31%30.15 "Hg10 mi
10:00 AM88 °FSunny.15 mph33%30.15 "Hg10 mi
9:30 AM86 °FPassing clouds.12 mph33%30.18 "HgN/A
9:00 AM86 °FSunny.13 mph33%30.18 "Hg10 mi
8:30 AM82 °FPassing clouds.9 mph37%30.18 "HgN/A
8:00 AM81 °FPassing clouds.7 mph39%30.18 "HgN/A
7:30 AM79 °FPassing clouds.8 mph45%30.18 "HgN/A
7:00 AM77 °FPassing clouds.8 mph44%30.18 "HgN/A
6:30 AM75 °FClear.5 mph47%30.18 "Hg10 mi
6:00 AM75 °FPassing clouds.3 mph47%30.18 "HgN/A
5:30 AM75 °FClear.7 mph47%30.18 "Hg10 mi
5:00 AM77 °FPassing clouds.6 mph44%30.18 "HgN/A
4:30 AM77 °FClear.6 mph44%30.18 "Hg10 mi
4:00 AM79 °FClear.6 mph42%30.18 "Hg10 mi
3:30 AM79 °FPassing clouds.5 mph42%30.15 "HgN/A
3:00 AM79 °FClear.7 mph42%30.18 "Hg10 mi
2:30 AM81 °FClear.9 mph39%30.15 "Hg10 mi
2:00 AM81 °FClear.7 mph39%30.18 "Hg10 mi
1:30 AM81 °FPassing clouds.8 mph37%30.15 "HgN/A
1:00 AM81 °FPassing clouds.9 mph37%30.15 "HgN/A
12:30 AM82 °FClear.7 mph35%30.15 "Hg10 mi
12:00 AM82 °FClear.9 mph35%30.15 "Hg10 mi
11:30 PM
Fri, Jul 3
84 °FPassing clouds.5 mph33%30.15 "HgN/A
11:00 PM86 °FPassing clouds.9 mph31%30.15 "HgN/A
10:30 PM88 °FSunny.15 mph29%30.12 "Hg10 mi
10:00 PM88 °FPassing clouds.17 mph27%30.12 "HgN/A
9:30 PM88 °FSunny.15 mph33%30.12 "Hg10 mi
9:00 PM90 °FPassing clouds.8 mph36%30.12 "HgN/A
8:30 PM90 °FPassing clouds.7 mph36%30.12 "HgN/A
8:00 PM91 °FPassing clouds.12 mph34%30.12 "HgN/A
7:30 PM93 °FPassing clouds.12 mph32%30.12 "HgN/A
7:00 PM93 °FPassing clouds.14 mph32%30.12 "HgN/A
6:30 PM93 °FPassing clouds.13 mph30%30.12 "HgN/A
6:00 PM95 °FSunny.14 mph28%30.12 "Hg10 mi
5:30 PM95 °FPassing clouds.15 mph28%30.12 "HgN/A
5:00 PM97 °FPassing clouds.14 mph25%30.12 "HgN/A
4:30 PM97 °FPassing clouds.16 mph23%30.12 "HgN/A
4:00 PM95 °FSunny.18 mph26%30.15 "Hg10 mi
3:30 PM93 °FPassing clouds.16 mph30%30.15 "HgN/A
3:00 PM93 °FPassing clouds.15 mph30%30.15 "HgN/A
2:30 PM93 °FSunny.15 mph32%30.18 "Hg10 mi
2:00 PM91 °FPassing clouds.7 mph34%30.18 "HgN/A
Weather by CustomWeather, © 2015

See weather overviewHow to use our weather pages